Change the Weather History Date:

Sunday, December 9, 2012

  Actual Average Record
Temperature  
Mean Temperature 16 °F -  
Max Temperature 26 °F 28 °F 51 °F (2006)
Min Temperature 5 °F 13 °F -20 °F (2007)
Degree Days  
Heating Degree Days 50    
Moisture  
Dew Point 16 °F    
Average Humidity 91    
Maximum Humidity 100    
Minimum Humidity 79    
Precipitation  
Precipitation 0.04 in - - ()
Sea Level Pressure  
Sea Level Pressure 30.00 in    
Wind  
Wind Speed 10 mph (NNE)    
Max Wind Speed 21 mph    
Max Gust Speed 26 mph    
Visibility 3 miles    
Events Snow    
Averages and records for this station are not official NWS values.
T = Trace of Precipitation, MM = Missing Value Source: NWS Daily Summary

Daily Weather History Graph

Daily Weather History Graph

Search for Another Location

Airport or City:

Trip Planner

Search our weather history database for the weather conditions in past years. The results will help you decide how hot, cold, wet, or windy it might be!

Date:

Astronomy

Dec. 09, 2012 Rise Set
Actual Time 7:51 AM CST 4:32 PM CST
Civil Twilight 7:16 AM CST 5:07 PM CST
Nautical Twilight 6:38 AM CST 5:45 PM CST
Astronomical Twilight 6:01 AM CST 6:21 PM CST
Moon 3:14 AM CST (12/9) 1:49 PM CST (12/9)
Length of Visible Light 9h 50m
Length of Day
8h 41m
Waning Crescent, 18% of the Moon is Illuminated
Dec 9
Waning Crescent
Dec 13
New
Dec 19
First Quarter
Dec 28
Full
Jan 4
Last Quarter

Hourly Weather History & Observations

Time (CST) Temp. Windchill Dew Point Humidity Pressure Visibility Wind Dir Wind Speed Gust Speed Precip Events Conditions
12:13 AM 26.6 °F 20.0 °F 24.8 °F 93% 29.99 in 1.5 mi East 5.8 mph - 0.01 in   Overcast
12:33 AM 24.8 °F 19.1 °F 24.8 °F 100% 29.99 in 1.2 mi East 4.6 mph - 0.01 in   Overcast
12:53 AM 24.8 °F 19.1 °F 24.8 °F 100% 29.99 in 1.2 mi East 4.6 mph - 0.02 in Snow Light Snow
1:13 AM 24.8 °F 17.9 °F 24.8 °F 100% 29.98 in 1.2 mi East 5.8 mph - N/A Snow Light Snow
1:33 AM 24.8 °F 19.1 °F 24.8 °F 100% 29.98 in 1.2 mi East 4.6 mph - 0.01 in Snow Light Snow
1:53 AM 24.8 °F 16.9 °F 24.8 °F 100% 29.97 in 1.8 mi East 6.9 mph - 0.01 in Snow Light Snow
2:14 AM 24.8 °F 14.6 °F 24.8 °F 100% 29.96 in 2.0 mi ENE 10.4 mph - N/A   Overcast
2:33 AM 26.6 °F 19.1 °F 24.8 °F 93% 29.97 in 3.0 mi East 6.9 mph - N/A Snow Light Snow
2:53 AM 26.6 °F 21.2 °F 24.8 °F 93% 29.96 in 3.0 mi ENE 4.6 mph - N/A Snow Light Snow
3:14 AM 26.6 °F 20.0 °F 24.8 °F 93% 29.96 in 4.0 mi ENE 5.8 mph - N/A Snow Light Snow
3:34 AM 26.6 °F 18.2 °F 24.8 °F 93% 29.95 in 2.5 mi ENE 8.1 mph - N/A Snow Light Snow
3:53 AM 26.6 °F 20.0 °F 24.8 °F 93% 29.95 in 2.0 mi ENE 5.8 mph - N/A Snow Light Snow
4:14 AM 26.6 °F 18.2 °F 24.8 °F 93% 29.95 in 3.0 mi ENE 8.1 mph - N/A Snow Light Snow
4:34 AM 26.6 °F 20.0 °F 24.8 °F 93% 29.95 in 2.5 mi NE 5.8 mph - N/A Snow Light Snow
4:53 AM 26.6 °F 17.5 °F 24.8 °F 93% 29.96 in 2.0 mi ENE 9.2 mph - N/A Snow Light Snow
5:14 AM 24.8 °F 17.9 °F 24.8 °F 100% 29.96 in 2.0 mi NE 5.8 mph - N/A Snow Light Snow
5:34 AM 24.8 °F 16.1 °F 24.8 °F 100% 29.97 in 1.8 mi ENE 8.1 mph - N/A Snow Light Snow
5:53 AM 24.8 °F 16.1 °F 24.8 °F 100% 29.96 in 1.8 mi NE 8.1 mph - N/A Snow Light Snow
6:13 AM 24.8 °F 16.9 °F 24.8 °F 100% 29.97 in 2.5 mi NE 6.9 mph - N/A Snow Light Snow
6:34 AM 24.8 °F 16.9 °F 24.8 °F 100% 29.97 in 4.0 mi NNE 6.9 mph - N/A Snow Light Snow
6:53 AM 24.8 °F 16.9 °F 24.8 °F 100% 29.97 in 2.5 mi NE 6.9 mph - N/A Snow Light Snow
7:13 AM 24.8 °F 15.3 °F 24.8 °F 100% 29.98 in 2.5 mi NE 9.2 mph - N/A Snow Light Snow
7:34 AM 24.8 °F 15.3 °F 24.8 °F 100% 29.98 in 3.0 mi NNE 9.2 mph - N/A Snow Light Snow
7:53 AM 24.8 °F 14.6 °F 24.8 °F 100% 29.98 in 2.5 mi NNE 10.4 mph - N/A Snow Light Snow
8:13 AM 24.8 °F 14.6 °F 24.8 °F 100% 29.98 in 1.2 mi NNE 10.4 mph - N/A Snow Light Snow
8:34 AM 24.8 °F 15.3 °F 23.0 °F 93% 29.99 in 1.2 mi NNE 9.2 mph - N/A Snow Light Snow
8:53 AM 24.8 °F 14.6 °F 23.0 °F 93% 30.00 in 0.8 mi NNE 10.4 mph - 0.01 in Snow Light Snow
9:33 AM 23.0 °F 10.6 °F 21.2 °F 93% 30.00 in 0.8 mi North 13.8 mph 18.4 mph N/A Snow Light Snow
9:54 AM 21.2 °F 8.9 °F 21.2 °F 100% 30.00 in 1.2 mi NNE 12.7 mph 19.6 mph N/A Snow Light Snow
10:13 AM 21.2 °F 8.3 °F 19.4 °F 93% 30.01 in 2.0 mi NNE 13.8 mph 18.4 mph N/A Snow Light Snow
10:33 AM 21.2 °F 8.3 °F 17.6 °F 86% 30.01 in 2.5 mi North 13.8 mph 24.2 mph N/A Snow Light Snow
10:54 AM 21.2 °F 8.9 °F 17.6 °F 86% 30.01 in 3.0 mi NNE 12.7 mph 20.7 mph N/A Snow Light Snow
11:13 AM 19.4 °F 6.6 °F 17.6 °F 93% 30.01 in 2.5 mi North 12.7 mph 21.9 mph N/A Snow Light Snow
11:33 AM 19.4 °F 7.2 °F 17.6 °F 93% 30.00 in 1.2 mi North 11.5 mph 19.6 mph N/A Snow Light Snow
11:53 AM 19.4 °F 7.2 °F 17.6 °F 93% 29.99 in 1.5 mi North 11.5 mph 24.2 mph N/A Snow Light Snow
12:14 PM 19.4 °F 5.5 °F 15.8 °F 86% 29.99 in 1.5 mi North 15.0 mph 18.4 mph N/A Snow Light Snow
12:33 PM 19.4 °F 4.1 °F 15.8 °F 86% 29.99 in 1.5 mi North 18.4 mph - N/A Snow Light Snow
12:53 PM 17.6 °F 2.2 °F 15.8 °F 93% 29.98 in 1.5 mi North 17.3 mph 25.3 mph N/A Snow Light Snow
1:14 PM 17.6 °F 2.7 °F 15.8 °F 93% 29.98 in 1.2 mi North 16.1 mph 23.0 mph N/A Snow Light Snow
1:33 PM 17.6 °F 3.7 °F 15.8 °F 93% 29.97 in 1.0 mi North 13.8 mph 23.0 mph N/A Snow Light Snow
1:53 PM 17.6 °F 1.7 °F 15.8 °F 93% 29.97 in 1.0 mi North 18.4 mph 25.3 mph N/A Snow Light Snow
2:14 PM 17.6 °F 2.7 °F 14.0 °F 86% 29.97 in 1.0 mi North 16.1 mph 24.2 mph N/A Snow Light Snow
2:33 PM 15.8 °F -1.1 °F 14.0 °F 93% 29.97 in 0.8 mi North 19.6 mph - N/A Snow Light Snow
2:53 PM 15.8 °F -0.2 °F 14.0 °F 93% 29.98 in 1.0 mi North 17.3 mph 25.3 mph N/A Snow Light Snow
3:14 PM 15.8 °F -0.6 °F 14.0 °F 93% 29.98 in 1.0 mi North 18.4 mph 24.2 mph N/A Snow Light Snow
3:33 PM 15.8 °F -1.5 °F 12.2 °F 86% 29.99 in 0.8 mi North 20.7 mph 26.5 mph N/A Snow Light Snow
3:53 PM 15.8 °F -0.2 °F 12.2 °F 86% 30.00 in 1.0 mi North 17.3 mph 21.9 mph N/A Snow Light Snow
4:13 PM 15.8 °F -0.6 °F 12.2 °F 86% 30.01 in 1.2 mi North 18.4 mph - N/A Snow Light Snow
4:33 PM 14.0 °F -1.4 °F 10.4 °F 86% 30.01 in 1.8 mi North 15.0 mph 21.9 mph N/A Snow Light Snow
4:53 PM 14.0 °F -3.0 °F 10.4 °F 86% 30.02 in 2.5 mi North 18.4 mph - N/A Snow Light Snow
5:13 PM 14.0 °F -2.0 °F 10.4 °F 86% 30.02 in 2.0 mi North 16.1 mph 23.0 mph N/A Snow Light Snow
5:34 PM 12.2 °F -3.1 °F 10.4 °F 92% 30.03 in 1.8 mi North 13.8 mph 26.5 mph N/A Snow Light Snow
5:53 PM 12.2 °F -2.5 °F 10.4 °F 92% 30.03 in 2.0 mi North 12.7 mph - N/A Snow Light Snow
6:13 PM 12.2 °F -3.7 °F 10.4 °F 92% 30.04 in 2.5 mi North 15.0 mph - N/A Snow Light Snow
6:34 PM 12.2 °F -2.5 °F 8.6 °F 85% 30.04 in 2.5 mi North 12.7 mph - N/A Snow Light Snow
6:53 PM 12.2 °F -3.1 °F 8.6 °F 85% 30.05 in 3.0 mi North 13.8 mph 18.4 mph N/A Snow Light Snow
7:13 PM 10.4 °F -6.6 °F 8.6 °F 92% 30.05 in 3.0 mi North 16.1 mph 19.6 mph N/A Snow Light Snow
7:34 PM 10.4 °F -4.8 °F 6.8 °F 85% 30.05 in 4.0 mi North 12.7 mph - N/A Snow Light Snow
7:53 PM 10.4 °F -6.0 °F 6.8 °F 85% 30.05 in 4.0 mi North 15.0 mph - N/A Snow Light Snow
8:13 PM 8.6 °F -9.5 °F 6.8 °F 92% 30.05 in 3.0 mi North 17.3 mph - N/A Snow Light Snow
8:34 PM 8.6 °F -10.0 °F 3.2 °F 79% 30.05 in 5.0 mi North 18.4 mph 21.9 mph N/A Snow Light Snow
8:53 PM 8.6 °F -7.7 °F 3.2 °F 79% 30.05 in 7.0 mi North 13.8 mph - N/A Snow Light Snow
9:13 PM 8.6 °F -7.0 °F 3.2 °F 79% 30.04 in 7.0 mi North 12.7 mph - N/A Snow Light Snow
9:33 PM 8.6 °F -7.7 °F 3.2 °F 79% 30.04 in 7.0 mi NNW 13.8 mph - N/A Snow Light Snow
9:53 PM 8.6 °F -6.3 °F 3.2 °F 79% 30.03 in 4.0 mi NNW 11.5 mph - N/A Snow Light Snow
10:13 PM 6.8 °F -8.6 °F 3.2 °F 85% 30.03 in 5.0 mi NNW 11.5 mph 16.1 mph N/A Snow Light Snow
10:33 PM 6.8 °F -10.7 °F 1.4 °F 79% 30.03 in 7.0 mi NNW 15.0 mph 19.6 mph N/A Snow Light Snow
10:53 PM 6.8 °F -11.8 °F 1.4 °F 79% 30.02 in 10.0 mi North 17.3 mph - N/A Snow Light Snow
11:13 PM 6.8 °F -10.7 °F 1.4 °F 79% 30.02 in 10.0 mi NNW 15.0 mph 19.6 mph N/A Snow Light Snow
11:33 PM 5.0 °F -11.6 °F 1.4 °F 85% 30.02 in 10.0 mi North 12.7 mph - N/A Snow Light Snow
11:54 PM 5.0 °F -9.1 °F 1.4 °F 85% 30.02 in 10.0 mi NNW 9.2 mph - N/A   Overcast